Time,TemperatureF,DewpointF,PressureIn,WindDirection,WindDirectionDegrees,WindSpeedMPH,WindSpeedGustMPH,Humidity,HourlyPrecipIn,Conditions,Clouds,dailyrainin,SolarRadiationWatts/m^2,SoftwareType,DateUTC
2013-01-24 00:00:00,11.7,4.7,30.25,SE,140,1.0,1.0,73,0.00,,,0.00,0,Wunderground v.1.15,2013-01-24 05:00:00,
2013-01-24 00:01:00,11.7,4.7,30.25,SE,140,1.0,1.0,73,0.00,,,0.00,0,Wunderground v.1.15,2013-01-24 05:01:00,
2013-01-24 00:02:00,11.7,4.7,30.25,SE,140,1.0,1.0,73,0.00,,,0.00,0,Wunderground v.1.15,2013-01-24 05:02:00,
2013-01-24 00:03:00,11.7,4.7,30.25,SE,140,1.0,1.0,73,0.00,,,0.00,0,Wunderground v.1.15,2013-01-24 05:03:00,
2013-01-24 00:08:00,11.7,5.0,30.25,SE,140,1.0,1.0,74,0.00,,,0.00,0,Wunderground v.1.15,2013-01-24 05:08:00,
2013-01-24 00:14:00,11.7,4.7,30.24,SE,140,1.0,1.0,73,0.00,,,0.00,0,Wunderground v.1.15,2013-01-24 05:14:00,
2013-01-24 00:21:00,11.7,4.7,30.24,SE,140,0.0,1.0,73,0.00,,,0.00,0,Wunderground v.1.15,2013-01-24 05:21:00,
2013-01-24 00:27:00,11.7,4.7,30.24,SE,140,1.0,1.0,73,0.00,,,0.00,0,Wunderground v.1.15,2013-01-24 05:27:00,
2013-01-24 00:33:00,11.6,4.6,30.24,SE,140,1.0,1.0,73,0.00,,,0.00,0,Wunderground v.1.15,2013-01-24 05:33:00,
2013-01-24 00:38:00,11.7,5.0,30.23,SE,140,1.0,2.0,74,0.00,,,0.00,0,Wunderground v.1.15,2013-01-24 05:38:00,
2013-01-24 00:43:00,11.5,5.4,30.23,SE,140,1.0,1.0,76,0.00,,,0.00,0,Wunderground v.1.15,2013-01-24 05:43:00,
2013-01-24 00:49:00,11.1,5.3,30.23,SSW,192,2.0,3.0,77,0.00,,,0.00,0,Wunderground v.1.15,2013-01-24 05:49:00,
2013-01-24 00:55:00,10.9,5.7,30.23,SSW,200,3.0,5.0,79,0.00,,,0.00,0,Wunderground v.1.15,2013-01-24 05:55:00,
2013-01-24 01:01:00,11.0,5.8,30.22,ESE,120,2.0,2.0,79,0.00,,,0.00,0,Wunderground v.1.15,2013-01-24 06:01:00,
2013-01-24 01:06:00,11.0,5.5,30.22,ENE,72,1.0,2.0,78,0.00,,,0.00,0,Wunderground v.1.15,2013-01-24 06:06:00,
2013-01-24 01:12:00,11.0,5.2,30.22,NE,56,1.0,1.0,77,0.00,,,0.00,0,Wunderground v.1.15,2013-01-24 06:12:00,
2013-01-24 01:17:00,11.2,5.1,30.22,North,5,1.0,1.0,76,0.00,,,0.00,0,Wunderground v.1.15,2013-01-24 06:17:00,
2013-01-24 01:23:00,11.2,4.8,30.22,North,5,1.0,2.0,75,0.00,,,0.00,0,Wunderground v.1.15,2013-01-24 06:23:00,
2013-01-24 01:29:00,11.2,4.5,30.22,North,360,1.0,2.0,74,0.00,,,0.00,0,Wunderground v.1.15,2013-01-24 06:29:00,
2013-01-24 01:35:00,11.1,4.4,30.22,NNE,16,1.0,1.0,74,0.00,,,0.00,0,Wunderground v.1.15,2013-01-24 06:35:00,
2013-01-24 01:41:00,11.0,4.3,30.22,South,173,1.0,4.0,74,0.00,,,0.00,0,Wunderground v.1.15,2013-01-24 06:41:00,
2013-01-24 01:47:00,10.8,5.0,30.22,SSW,202,2.0,4.0,77,0.00,,,0.00,0,Wunderground v.1.15,2013-01-24 06:47:00,
2013-01-24 01:52:00,10.8,5.6,30.22,WSW,240,1.0,1.0,79,0.00,,,0.00,0,Wunderground v.1.15,2013-01-24 06:52:00,
2013-01-24 01:57:00,10.8,5.8,30.23,SSE,158,1.0,2.0,80,0.00,,,0.00,0,Wunderground v.1.15,2013-01-24 06:57:00,
2013-01-24 02:02:00,10.6,5.9,30.22,SSW,200,2.0,5.0,81,0.00,,,0.00,0,Wunderground v.1.15,2013-01-24 07:02:00,
2013-01-24 02:07:00,10.4,6.0,30.23,South,185,3.0,5.0,82,0.00,,,0.00,0,Wunderground v.1.15,2013-01-24 07:07:00,
2013-01-24 02:13:00,10.4,6.0,30.23,SSW,201,2.0,3.0,82,0.00,,,0.00,0,Wunderground v.1.15,2013-01-24 07:13:00,
2013-01-24 02:18:00,10.4,6.3,30.23,SSW,198,1.0,3.0,83,0.00,,,0.00,0,Wunderground v.1.15,2013-01-24 07:18:00,
2013-01-24 02:24:00,10.5,6.4,30.23,South,178,1.0,2.0,83,0.00,,,0.00,0,Wunderground v.1.15,2013-01-24 07:24:00,
2013-01-24 02:30:00,10.5,6.4,30.22,SSW,202,1.0,1.0,83,0.00,,,0.00,0,Wunderground v.1.15,2013-01-24 07:30:00,
2013-01-24 02:35:00,10.6,6.5,30.22,SSE,155,1.0,2.0,83,0.00,,,0.00,0,Wunderground v.1.15,2013-01-24 07:35:00,
2013-01-24 02:41:00,10.7,6.6,30.23,ENE,78,1.0,2.0,83,0.00,,,0.00,0,Wunderground v.1.15,2013-01-24 07:41:00,
2013-01-24 02:46:00,10.6,6.7,30.22,ENE,67,1.0,2.0,84,0.00,,,0.00,0,Wunderground v.1.15,2013-01-24 07:46:00,
2013-01-24 02:51:00,10.5,6.6,30.23,NE,46,2.0,2.0,84,0.00,,,0.00,0,Wunderground v.1.15,2013-01-24 07:51:00,
2013-01-24 02:58:00,10.5,6.6,30.22,NE,40,1.0,2.0,84,0.00,,,0.00,0,Wunderground v.1.15,2013-01-24 07:58:00,
2013-01-24 03:04:00,10.4,6.3,30.23,NE,44,1.0,2.0,83,0.00,,,0.00,0,Wunderground v.1.15,2013-01-24 08:04:00,
2013-01-24 03:09:00,10.3,6.2,30.22,NNE,28,1.0,2.0,83,0.00,,,0.00,0,Wunderground v.1.15,2013-01-24 08:09:00,
2013-01-24 03:14:00,10.3,6.4,30.22,NNE,32,1.0,2.0,84,0.00,,,0.00,0,Wunderground v.1.15,2013-01-24 08:14:00,
2013-01-24 03:20:00,10.3,6.4,30.23,NNE,31,1.0,1.0,84,0.00,,,0.00,0,Wunderground v.1.15,2013-01-24 08:20:00,
2013-01-24 03:25:00,10.3,6.7,30.23,NNE,32,1.0,2.0,85,0.00,,,0.00,0,Wunderground v.1.15,2013-01-24 08:25:00,
2013-01-24 03:31:00,10.3,6.4,30.23,NNE,28,1.0,1.0,84,0.00,,,0.00,0,Wunderground v.1.15,2013-01-24 08:31:00,
2013-01-24 03:37:00,10.3,6.7,30.23,NE,39,1.0,1.0,85,0.00,,,0.00,0,Wunderground v.1.15,2013-01-24 08:37:00,
2013-01-24 03:42:00,10.4,6.8,30.23,NNE,23,1.0,1.0,85,0.00,,,0.00,0,Wunderground v.1.15,2013-01-24 08:42:00,
2013-01-24 03:48:00,10.5,6.6,30.23,NE,34,1.0,1.0,84,0.00,,,0.00,0,Wunderground v.1.15,2013-01-24 08:48:00,
2013-01-24 03:54:00,10.5,6.4,30.23,North,5,1.0,2.0,83,0.00,,,0.00,0,Wunderground v.1.15,2013-01-24 08:54:00,
2013-01-24 04:00:00,10.5,6.1,30.23,North,5,1.0,1.0,82,0.00,,,0.00,0,Wunderground v.1.15,2013-01-24 09:00:00,
2013-01-24 04:05:00,10.5,5.8,30.24,North,360,1.0,2.0,81,0.00,,,0.00,0,Wunderground v.1.15,2013-01-24 09:05:00,
2013-01-24 04:10:00,10.6,5.9,30.23,North,360,1.0,1.0,81,0.00,,,0.00,0,Wunderground v.1.15,2013-01-24 09:10:00,
2013-01-24 04:16:00,10.7,5.7,30.24,NNE,28,1.0,1.0,80,0.00,,,0.00,0,Wunderground v.1.15,2013-01-24 09:16:00,
2013-01-24 04:21:00,10.7,5.7,30.24,NNE,28,1.0,1.0,80,0.00,,,0.00,0,Wunderground v.1.15,2013-01-24 09:21:00,
2013-01-24 04:27:00,10.8,6.1,30.24,NNE,25,1.0,1.0,81,0.00,,,0.00,0,Wunderground v.1.15,2013-01-24 09:27:00,
2013-01-24 04:33:00,10.9,6.2,30.24,NNW,345,1.0,2.0,81,0.00,,,0.00,0,Wunderground v.1.15,2013-01-24 09:33:00,
2013-01-24 04:39:00,11.0,6.3,30.24,NNW,345,1.0,2.0,81,0.00,,,0.00,0,Wunderground v.1.15,2013-01-24 09:39:00,
2013-01-24 04:45:00,11.0,6.3,30.25,NNW,339,1.0,1.0,81,0.00,,,0.00,0,Wunderground v.1.15,2013-01-24 09:45:00,
2013-01-24 04:50:00,11.0,6.3,30.25,NNW,340,1.0,1.0,81,0.00,,,0.00,0,Wunderground v.1.15,2013-01-24 09:50:00,
2013-01-24 04:56:00,10.9,6.2,30.25,NNW,340,1.0,1.0,81,0.00,,,0.00,0,Wunderground v.1.15,2013-01-24 09:56:00,
2013-01-24 05:01:00,10.9,6.2,30.25,NNW,340,1.0,1.0,81,0.00,,,0.00,0,Wunderground v.1.15,2013-01-24 10:01:00,
2013-01-24 05:06:00,11.0,6.3,30.25,NNW,339,0.0,1.0,81,0.00,,,0.00,0,Wunderground v.1.15,2013-01-24 10:06:00,
2013-01-24 05:13:00,11.0,6.3,30.26,NW,307,1.0,2.0,81,0.00,,,0.00,0,Wunderground v.1.15,2013-01-24 10:13:00,
2013-01-24 05:19:00,10.9,6.2,30.26,WNW,294,1.0,2.0,81,0.00,,,0.00,0,Wunderground v.1.15,2013-01-24 10:19:00,
2013-01-24 05:24:00,10.9,6.5,30.26,WNW,298,1.0,3.0,82,0.00,,,0.00,0,Wunderground v.1.15,2013-01-24 10:24:00,
2013-01-24 05:30:00,10.9,6.5,30.26,NW,304,1.0,3.0,82,0.00,,,0.00,0,Wunderground v.1.15,2013-01-24 10:30:00,
2013-01-24 05:36:00,10.9,6.2,30.27,NNW,336,1.0,3.0,81,0.00,,,0.00,0,Wunderground v.1.15,2013-01-24 10:36:00,
2013-01-24 05:42:00,10.9,6.2,30.27,NW,317,2.0,2.0,81,0.00,,,0.00,0,Wunderground v.1.15,2013-01-24 10:42:00,
2013-01-24 05:48:00,10.9,6.5,30.27,NW,309,1.0,2.0,82,0.00,,,0.00,0,Wunderground v.1.15,2013-01-24 10:48:00,
2013-01-24 05:54:00,11.0,6.3,30.28,NW,316,1.0,1.0,81,0.00,,,0.00,0,Wunderground v.1.15,2013-01-24 10:54:00,
2013-01-24 06:00:00,11.0,6.3,30.28,NNW,327,1.0,4.0,81,0.00,,,0.00,0,Wunderground v.1.15,2013-01-24 11:00:00,
2013-01-24 06:06:00,10.9,6.2,30.28,NW,325,2.0,4.0,81,0.00,,,0.00,0,Wunderground v.1.15,2013-01-24 11:06:00,
2013-01-24 06:12:00,10.9,6.2,30.28,NW,321,1.0,1.0,81,0.00,,,0.00,0,Wunderground v.1.15,2013-01-24 11:12:00,
2013-01-24 06:17:00,11.0,6.3,30.29,WNW,303,1.0,2.0,81,0.00,,,0.00,0,Wunderground v.1.15,2013-01-24 11:17:00,
2013-01-24 06:23:00,11.1,6.4,30.29,WNW,296,2.0,2.0,81,0.00,,,0.00,0,Wunderground v.1.15,2013-01-24 11:23:00,
2013-01-24 06:28:00,11.3,6.6,30.29,NW,316,2.0,2.0,81,0.00,,,0.00,0,Wunderground v.1.15,2013-01-24 11:28:00,
2013-01-24 06:34:00,11.4,7.0,30.29,WNW,302,1.0,2.0,82,0.00,,,0.00,0,Wunderground v.1.15,2013-01-24 11:34:00,
2013-01-24 06:39:00,11.4,7.0,30.30,WNW,295,2.0,2.0,82,0.00,,,0.00,0,Wunderground v.1.15,2013-01-24 11:39:00,
2013-01-24 06:45:00,11.4,7.2,30.30,WNW,294,2.0,4.0,83,0.00,,,0.00,0,Wunderground v.1.15,2013-01-24 11:45:00,
2013-01-24 06:51:00,11.6,7.7,30.30,WNW,294,2.0,2.0,84,0.00,,,0.00,0,Wunderground v.1.15,2013-01-24 11:51:00,
2013-01-24 06:56:00,11.7,7.8,30.30,NW,308,1.0,3.0,84,0.00,,,0.00,0,Wunderground v.1.15,2013-01-24 11:56:00,
2013-01-24 07:02:00,11.8,7.9,30.31,WNW,298,1.0,2.0,84,0.00,,,0.00,0,Wunderground v.1.15,2013-01-24 12:02:00,
2013-01-24 07:07:00,11.8,7.9,30.31,NW,309,1.0,2.0,84,0.00,,,0.00,0,Wunderground v.1.15,2013-01-24 12:07:00,
2013-01-24 07:13:00,11.7,7.8,30.31,NW,308,1.0,2.0,84,0.00,,,0.00,0,Wunderground v.1.15,2013-01-24 12:13:00,
2013-01-24 07:19:00,11.8,7.9,30.31,NW,304,1.0,2.0,84,0.00,,,0.00,0,Wunderground v.1.15,2013-01-24 12:19:00,
2013-01-24 07:25:00,11.8,7.9,30.32,WNW,303,1.0,3.0,84,0.00,,,0.00,5,Wunderground v.1.15,2013-01-24 12:25:00,
2013-01-24 07:31:00,11.8,7.9,30.32,WNW,297,1.0,2.0,84,0.00,,,0.00,9,Wunderground v.1.15,2013-01-24 12:31:00,
2013-01-24 07:37:00,11.9,8.0,30.32,WNW,294,1.0,2.0,84,0.00,,,0.00,14,Wunderground v.1.15,2013-01-24 12:37:00,
2013-01-24 07:42:00,11.9,8.0,30.32,NNW,327,2.0,2.0,84,0.00,,,0.00,19,Wunderground v.1.15,2013-01-24 12:42:00,
2013-01-24 07:48:00,11.9,8.3,30.33,NW,323,2.0,2.0,85,0.00,,,0.00,23,Wunderground v.1.15,2013-01-24 12:48:00,
2013-01-24 07:54:00,11.8,7.9,30.33,NNW,333,2.0,5.0,84,0.00,,,0.00,28,Wunderground v.1.15,2013-01-24 12:54:00,
2013-01-24 07:59:00,11.7,7.8,30.33,NW,306,3.0,5.0,84,0.00,,,0.00,30,Wunderground v.1.15,2013-01-24 12:59:00,
2013-01-24 08:04:00,11.6,7.4,30.34,NW,322,3.0,5.0,83,0.00,,,0.00,33,Wunderground v.1.15,2013-01-24 13:04:00,
2013-01-24 08:10:00,11.5,7.3,30.34,NW,311,4.0,5.0,83,0.00,,,0.00,39,Wunderground v.1.15,2013-01-24 13:10:00,
2013-01-24 08:16:00,11.5,7.3,30.34,NW,311,3.0,5.0,83,0.00,,,0.00,51,Wunderground v.1.15,2013-01-24 13:16:00,
2013-01-24 08:21:00,11.6,7.7,30.35,NNW,340,4.0,5.0,84,0.00,,,0.00,58,Wunderground v.1.15,2013-01-24 13:21:00,
2013-01-24 08:27:00,11.7,7.5,30.35,NW,312,4.0,7.0,83,0.00,,,0.00,58,Wunderground v.1.15,2013-01-24 13:27:00,
2013-01-24 08:32:00,11.7,7.8,30.36,NNW,343,4.0,5.0,84,0.00,,,0.00,62,Wunderground v.1.15,2013-01-24 13:32:00,
2013-01-24 08:38:00,11.8,7.9,30.36,NW,321,4.0,6.0,84,0.00,,,0.00,67,Wunderground v.1.15,2013-01-24 13:38:00,
2013-01-24 08:44:00,11.9,8.0,30.36,NW,309,4.0,5.0,84,0.00,,,0.00,84,Wunderground v.1.15,2013-01-24 13:44:00,
2013-01-24 08:49:00,12.1,8.5,30.37,WNW,294,3.0,3.0,85,0.00,,,0.00,98,Wunderground v.1.15,2013-01-24 13:49:00,
2013-01-24 08:55:00,12.3,8.7,30.37,NW,311,4.0,5.0,85,0.00,,,0.00,109,Wunderground v.1.15,2013-01-24 13:55:00,
2013-01-24 09:00:00,12.5,8.6,30.37,NW,319,5.0,5.0,84,0.00,,,0.00,111,Wunderground v.1.15,2013-01-24 14:00:00,
2013-01-24 09:06:00,12.7,8.5,30.37,West,278,4.0,5.0,83,0.00,,,0.00,162,Wunderground v.1.15,2013-01-24 14:06:00,
2013-01-24 09:12:00,13.1,8.9,30.38,WNW,284,4.0,4.0,83,0.00,,,0.00,190,Wunderground v.1.15,2013-01-24 14:12:00,
2013-01-24 09:18:00,13.4,8.9,30.38,WNW,298,3.0,5.0,82,0.00,,,0.00,218,Wunderground v.1.15,2013-01-24 14:18:00,
2013-01-24 09:23:00,13.7,9.0,30.38,West,275,4.0,5.0,81,0.00,,,0.00,230,Wunderground v.1.15,2013-01-24 14:23:00,
2013-01-24 09:28:00,14.1,9.1,30.38,WNW,301,4.0,7.0,80,0.00,,,0.00,253,Wunderground v.1.15,2013-01-24 14:28:00,
2013-01-24 09:34:00,14.4,8.8,30.39,NW,323,5.0,7.0,78,0.00,,,0.00,276,Wunderground v.1.15,2013-01-24 14:34:00,
2013-01-24 09:39:00,14.6,9.0,30.39,NW,304,6.0,7.0,78,0.00,,,0.00,294,Wunderground v.1.15,2013-01-24 14:39:00,
2013-01-24 09:45:00,14.8,8.9,30.39,WNW,297,6.0,8.0,77,0.00,,,0.00,306,Wunderground v.1.15,2013-01-24 14:45:00,
2013-01-24 09:50:00,14.6,8.1,30.39,WNW,289,7.0,8.0,75,0.00,,,0.00,329,Wunderground v.1.15,2013-01-24 14:50:00,
2013-01-24 09:56:00,14.9,8.4,30.39,NNW,333,7.0,8.0,75,0.00,,,0.00,318,Wunderground v.1.15,2013-01-24 14:56:00,
2013-01-24 10:01:00,15.1,8.3,30.40,North,355,6.0,6.0,74,0.00,,,0.00,336,Wunderground v.1.15,2013-01-24 15:01:00,
2013-01-24 10:07:00,15.3,8.2,30.40,NW,317,6.0,6.0,73,0.00,,,0.00,366,Wunderground v.1.15,2013-01-24 15:07:00,
2013-01-24 10:13:00,15.6,8.5,30.40,WNW,286,6.0,7.0,73,0.00,,,0.00,376,Wunderground v.1.15,2013-01-24 15:13:00,
2013-01-24 10:18:00,15.7,8.0,30.41,WNW,298,6.0,10.0,71,0.00,,,0.00,399,Wunderground v.1.15,2013-01-24 15:18:00,
2013-01-24 10:23:00,15.8,8.1,30.41,West,281,7.0,8.0,71,0.00,,,0.00,415,Wunderground v.1.15,2013-01-24 15:23:00,
2013-01-24 10:29:00,16.0,7.9,30.41,NW,312,6.0,8.0,70,0.00,,,0.00,425,Wunderground v.1.15,2013-01-24 15:29:00,
2013-01-24 10:34:00,16.3,7.9,30.41,NW,309,5.0,7.0,69,0.00,,,0.00,429,Wunderground v.1.15,2013-01-24 15:34:00,
2013-01-24 10:40:00,16.6,8.2,30.41,West,281,5.0,5.0,69,0.00,,,0.00,473,Wunderground v.1.15,2013-01-24 15:40:00,
2013-01-24 10:45:00,16.8,8.4,30.41,NW,323,5.0,5.0,69,0.00,,,0.00,387,Wunderground v.1.15,2013-01-24 15:45:00,
2013-01-24 10:51:00,16.8,7.7,30.42,NW,304,6.0,7.0,67,0.00,,,0.00,508,Wunderground v.1.15,2013-01-24 15:51:00,
2013-01-24 10:57:00,17.0,7.3,30.42,NNW,330,7.0,9.0,65,0.00,,,0.00,137,Wunderground v.1.15,2013-01-24 15:57:00,
2013-01-24 11:03:00,17.0,6.9,30.42,North,355,6.0,7.0,64,0.00,,,0.00,566,Wunderground v.1.15,2013-01-24 16:03:00,
2013-01-24 11:08:00,16.9,7.2,30.42,NNE,12,6.0,10.0,65,0.00,,,0.00,125,Wunderground v.1.15,2013-01-24 16:08:00,
2013-01-24 11:14:00,16.9,6.5,30.42,NNW,344,6.0,6.0,63,0.00,,,0.00,111,Wunderground v.1.15,2013-01-24 16:14:00,
2013-01-24 11:19:00,17.1,7.0,30.43,West,279,5.0,7.0,64,0.00,,,0.00,213,Wunderground v.1.15,2013-01-24 16:19:00,
2013-01-24 11:25:00,17.3,6.8,30.43,NW,317,7.0,8.0,63,0.00,,,0.00,127,Wunderground v.1.15,2013-01-24 16:25:00,
2013-01-24 11:30:00,17.8,6.6,30.43,WNW,291,7.0,7.0,61,0.00,,,0.00,594,Wunderground v.1.15,2013-01-24 16:30:00,
2013-01-24 11:37:00,18.7,7.8,30.42,WNW,298,6.0,7.0,62,0.00,,,0.00,617,Wunderground v.1.15,2013-01-24 16:37:00,
2013-01-24 11:43:00,19.0,7.0,30.42,NW,310,6.0,11.0,59,0.00,,,0.00,571,Wunderground v.1.15,2013-01-24 16:43:00,
2013-01-24 11:49:00,18.1,6.2,30.43,NW,308,9.0,13.0,59,0.00,,,0.00,91,Wunderground v.1.15,2013-01-24 16:49:00,
2013-01-24 11:55:00,18.1,5.8,30.43,NW,311,8.0,10.0,58,0.00,,,0.00,107,Wunderground v.1.15,2013-01-24 16:55:00,
2013-01-24 12:00:00,18.4,6.1,30.43,WNW,291,7.0,7.0,58,0.00,,,0.00,431,Wunderground v.1.15,2013-01-24 17:00:00,
2013-01-24 12:06:00,18.7,6.0,30.43,North,355,7.0,7.0,57,0.00,,,0.00,529,Wunderground v.1.15,2013-01-24 17:06:00,
2013-01-24 12:12:00,19.3,5.7,30.43,WSW,255,6.0,9.0,55,0.00,,,0.00,522,Wunderground v.1.15,2013-01-24 17:12:00,
2013-01-24 12:18:00,20.0,6.4,30.43,NW,313,5.0,10.0,55,0.00,,,0.00,515,Wunderground v.1.15,2013-01-24 17:18:00,
2013-01-24 12:23:00,19.8,5.8,30.43,WNW,295,6.0,9.0,54,0.00,,,0.00,517,Wunderground v.1.15,2013-01-24 17:23:00,
2013-01-24 12:30:00,20.0,6.0,30.43,NNW,329,6.0,9.0,54,0.00,,,0.00,524,Wunderground v.1.15,2013-01-24 17:30:00,
2013-01-24 12:36:00,20.5,6.1,30.43,NNW,345,7.0,10.0,53,0.00,,,0.00,508,Wunderground v.1.15,2013-01-24 17:36:00,
2013-01-24 12:41:00,20.6,5.7,30.43,NW,309,7.0,7.0,52,0.00,,,0.00,508,Wunderground v.1.15,2013-01-24 17:41:00,
2013-01-24 12:47:00,21.1,5.8,30.43,NW,311,7.0,10.0,51,0.00,,,0.00,504,Wunderground v.1.15,2013-01-24 17:47:00,
2013-01-24 12:52:00,20.9,4.7,30.43,NNW,329,8.0,13.0,49,0.00,,,0.00,517,Wunderground v.1.15,2013-01-24 17:52:00,
2013-01-24 12:58:00,21.0,4.8,30.43,NNW,346,8.0,13.0,49,0.00,,,0.00,457,Wunderground v.1.15,2013-01-24 17:58:00,
2013-01-24 13:04:00,21.3,4.2,30.43,WNW,292,8.0,12.0,47,0.00,,,0.00,601,Wunderground v.1.15,2013-01-24 18:04:00,
2013-01-24 13:09:00,21.5,4.8,30.43,NNW,332,10.0,14.0,48,0.00,,,0.00,615,Wunderground v.1.15,2013-01-24 18:09:00,
2013-01-24 13:14:00,21.7,4.1,30.43,WNW,298,9.0,10.0,46,0.00,,,0.00,181,Wunderground v.1.15,2013-01-24 18:14:00,
2013-01-24 13:19:00,21.4,3.3,30.43,NW,312,9.0,10.0,45,0.00,,,0.00,176,Wunderground v.1.15,2013-01-24 18:19:00,
2013-01-24 13:24:00,21.2,3.1,30.43,NW,305,10.0,10.0,45,0.00,,,0.00,156,Wunderground v.1.15,2013-01-24 18:24:00,
2013-01-24 13:30:00,21.1,3.0,30.43,NNW,336,10.0,10.0,45,0.00,,,0.00,139,Wunderground v.1.15,2013-01-24 18:30:00,
2013-01-24 13:35:00,21.1,3.0,30.43,NNW,342,9.0,11.0,45,0.00,,,0.00,171,Wunderground v.1.15,2013-01-24 18:35:00,
2013-01-24 13:41:00,21.4,3.3,30.43,NNW,329,9.0,9.0,45,0.00,,,0.00,142,Wunderground v.1.15,2013-01-24 18:41:00,
2013-01-24 13:46:00,21.7,3.1,30.43,NW,321,7.0,10.0,44,0.00,,,0.00,262,Wunderground v.1.15,2013-01-24 18:46:00,
2013-01-24 13:53:00,21.4,3.3,30.43,NE,49,7.0,9.0,45,0.00,,,0.00,155,Wunderground v.1.15,2013-01-24 18:53:00,
2013-01-24 13:58:00,21.9,2.8,30.42,NNW,335,6.0,10.0,43,0.00,,,0.00,104,Wunderground v.1.15,2013-01-24 18:58:00,
2013-01-24 14:04:00,22.1,3.5,30.42,NW,312,8.0,15.0,44,0.00,,,0.00,97,Wunderground v.1.15,2013-01-24 19:04:00,
2013-01-24 14:10:00,21.9,3.3,30.42,WNW,302,9.0,23.0,44,0.00,,,0.00,81,Wunderground v.1.15,2013-01-24 19:10:00,
2013-01-24 14:16:00,22.1,3.0,30.43,WNW,289,8.0,23.0,43,0.00,,,0.00,137,Wunderground v.1.15,2013-01-24 19:16:00,
2013-01-24 14:21:00,22.4,3.2,30.43,NNW,342,7.0,8.0,43,0.00,,,0.00,144,Wunderground v.1.15,2013-01-24 19:21:00,
2013-01-24 14:27:00,22.6,3.9,30.43,WNW,292,7.0,8.0,44,0.00,,,0.00,137,Wunderground v.1.15,2013-01-24 19:27:00,
2013-01-24 14:33:00,22.6,3.4,30.43,WNW,294,7.0,9.0,43,0.00,,,0.00,76,Wunderground v.1.15,2013-01-24 19:33:00,
2013-01-24 14:38:00,22.6,2.9,30.43,SW,229,7.0,9.0,42,0.00,,,0.00,104,Wunderground v.1.15,2013-01-24 19:38:00,
2013-01-24 14:44:00,22.6,2.4,30.43,NNW,334,8.0,11.0,41,0.00,,,0.00,77,Wunderground v.1.15,2013-01-24 19:44:00,
2013-01-24 14:50:00,22.5,2.3,30.44,WNW,284,8.0,9.0,41,0.00,,,0.00,56,Wunderground v.1.15,2013-01-24 19:50:00,
2013-01-24 14:56:00,22.6,2.4,30.44,NNW,329,8.0,11.0,41,0.00,,,0.00,47,Wunderground v.1.15,2013-01-24 19:56:00,
2013-01-24 15:01:00,22.7,2.5,30.44,NW,318,9.0,11.0,41,0.00,,,0.00,49,Wunderground v.1.15,2013-01-24 20:01:00,
2013-01-24 15:06:00,22.4,1.7,30.45,NNW,329,10.0,14.0,40,0.00,,,0.00,46,Wunderground v.1.15,2013-01-24 20:06:00,
2013-01-24 15:12:00,22.4,1.7,30.45,NNW,347,11.0,16.0,40,0.00,,,0.00,49,Wunderground v.1.15,2013-01-24 20:12:00,
2013-01-24 15:18:00,22.6,1.9,30.45,WNW,296,11.0,16.0,40,0.00,,,0.00,44,Wunderground v.1.15,2013-01-24 20:18:00,
2013-01-24 15:24:00,22.6,0.8,30.46,NNW,344,10.0,12.0,38,0.00,,,0.00,42,Wunderground v.1.15,2013-01-24 20:24:00,
2013-01-24 15:30:00,22.5,0.7,30.46,WNW,284,10.0,16.0,38,0.00,,,0.00,44,Wunderground v.1.15,2013-01-24 20:30:00,
2013-01-24 15:35:00,22.7,1.4,30.46,NNW,332,10.0,16.0,39,0.00,,,0.00,40,Wunderground v.1.15,2013-01-24 20:35:00,
2013-01-24 15:41:00,22.5,0.1,30.46,NW,324,11.0,16.0,37,0.00,,,0.00,35,Wunderground v.1.15,2013-01-24 20:41:00,
2013-01-24 15:48:00,22.4,0.6,30.47,West,275,11.0,16.0,38,0.00,,,0.00,33,Wunderground v.1.15,2013-01-24 20:48:00,
2013-01-24 15:54:00,22.3,1.1,30.47,NW,304,10.0,11.0,39,0.00,,,0.00,30,Wunderground v.1.15,2013-01-24 20:54:00,
2013-01-24 16:00:00,22.2,0.4,30.47,WNW,285,9.0,16.0,38,0.00,,,0.00,32,Wunderground v.1.15,2013-01-24 21:00:00,
2013-01-24 16:06:00,22.1,0.9,30.48,WNW,295,11.0,16.0,39,0.00,,,0.00,32,Wunderground v.1.15,2013-01-24 21:06:00,
2013-01-24 16:12:00,22.0,1.3,30.48,NW,323,11.0,12.0,40,0.00,,,0.00,30,Wunderground v.1.15,2013-01-24 21:12:00,
2013-01-24 16:17:00,22.0,1.3,30.48,West,276,10.0,12.0,40,0.00,,,0.00,30,Wunderground v.1.15,2013-01-24 21:17:00,
2013-01-24 16:22:00,22.0,1.3,30.48,NNW,335,10.0,10.0,40,0.00,,,0.00,28,Wunderground v.1.15,2013-01-24 21:22:00,
2013-01-24 16:28:00,21.9,1.8,30.49,WNW,297,10.0,12.0,41,0.00,,,0.00,23,Wunderground v.1.15,2013-01-24 21:28:00,
2013-01-24 16:33:00,21.8,0.6,30.49,NNW,335,9.0,12.0,39,0.00,,,0.00,21,Wunderground v.1.15,2013-01-24 21:33:00,
2013-01-24 16:39:00,21.9,1.2,30.49,NW,314,9.0,12.0,40,0.00,,,0.00,21,Wunderground v.1.15,2013-01-24 21:39:00,
2013-01-24 16:44:00,21.9,1.8,30.49,NW,304,7.0,10.0,41,0.00,,,0.00,16,Wunderground v.1.15,2013-01-24 21:44:00,
2013-01-24 16:50:00,21.8,1.7,30.49,NNW,338,7.0,7.0,41,0.00,,,0.00,14,Wunderground v.1.15,2013-01-24 21:50:00,
2013-01-24 16:56:00,21.6,1.0,30.50,NW,306,8.0,9.0,40,0.00,,,0.00,11,Wunderground v.1.15,2013-01-24 21:56:00,
2013-01-24 17:02:00,21.3,1.7,30.50,NNW,333,7.0,8.0,42,0.00,,,0.00,9,Wunderground v.1.15,2013-01-24 22:02:00,
2013-01-24 17:07:00,21.1,1.0,30.50,WNW,300,7.0,8.0,41,0.00,,,0.00,7,Wunderground v.1.15,2013-01-24 22:07:00,
2013-01-24 17:13:00,21.0,1.5,30.50,WNW,288,6.0,8.0,42,0.00,,,0.00,5,Wunderground v.1.15,2013-01-24 22:13:00,
2013-01-24 17:19:00,20.9,1.4,30.50,West,279,5.0,8.0,42,0.00,,,0.00,0,Wunderground v.1.15,2013-01-24 22:19:00,
2013-01-24 17:25:00,20.7,1.2,30.51,WNW,301,6.0,9.0,42,0.00,,,0.00,0,Wunderground v.1.15,2013-01-24 22:25:00,
2013-01-24 17:31:00,20.6,1.1,30.51,NW,323,6.0,8.0,42,0.00,,,0.00,0,Wunderground v.1.15,2013-01-24 22:31:00,
2013-01-24 17:36:00,20.5,1.5,30.52,NNW,336,7.0,8.0,43,0.00,,,0.00,0,Wunderground v.1.15,2013-01-24 22:36:00,
2013-01-24 17:41:00,20.3,1.3,30.52,WNW,288,6.0,6.0,43,0.00,,,0.00,0,Wunderground v.1.15,2013-01-24 22:41:00,
2013-01-24 17:48:00,20.3,1.8,30.52,NNW,336,6.0,8.0,44,0.00,,,0.00,0,Wunderground v.1.15,2013-01-24 22:48:00,
2013-01-24 17:53:00,20.2,1.2,30.52,NW,304,6.0,7.0,43,0.00,,,0.00,0,Wunderground v.1.15,2013-01-24 22:53:00,
2013-01-24 17:59:00,20.2,1.7,30.52,NW,321,7.0,8.0,44,0.00,,,0.00,0,Wunderground v.1.15,2013-01-24 22:59:00,
2013-01-24 18:05:00,20.0,1.5,30.53,NNW,331,6.0,8.0,44,0.00,,,0.00,0,Wunderground v.1.15,2013-01-24 23:05:00,
2013-01-24 18:11:00,19.8,1.8,30.53,West,269,5.0,6.0,45,0.00,,,0.00,0,Wunderground v.1.15,2013-01-24 23:11:00,
2013-01-24 18:16:00,19.7,1.8,30.54,WNW,296,5.0,6.0,45,0.00,,,0.00,0,Wunderground v.1.15,2013-01-24 23:16:00,
2013-01-24 18:22:00,19.6,2.1,30.54,NNW,348,4.0,5.0,46,0.00,,,0.00,0,Wunderground v.1.15,2013-01-24 23:22:00,
2013-01-24 18:27:00,19.5,2.0,30.54,WNW,285,5.0,7.0,46,0.00,,,0.00,0,Wunderground v.1.15,2013-01-24 23:27:00,
2013-01-24 18:32:00,19.4,2.4,30.54,WNW,294,6.0,7.0,47,0.00,,,0.00,0,Wunderground v.1.15,2013-01-24 23:32:00,
2013-01-24 18:38:00,19.3,2.8,30.54,WNW,290,5.0,7.0,48,0.00,,,0.00,0,Wunderground v.1.15,2013-01-24 23:38:00,
2013-01-24 18:43:00,19.1,2.6,30.54,NW,325,5.0,9.0,48,0.00,,,0.00,0,Wunderground v.1.15,2013-01-24 23:43:00,
2013-01-24 18:49:00,19.0,2.5,30.55,NW,322,5.0,9.0,48,0.00,,,0.00,0,Wunderground v.1.15,2013-01-24 23:49:00,
2013-01-24 18:54:00,18.9,2.9,30.55,WNW,300,5.0,6.0,49,0.00,,,0.00,0,Wunderground v.1.15,2013-01-24 23:54:00,
2013-01-24 19:00:00,18.7,2.7,30.55,NW,319,4.0,5.0,49,0.00,,,0.00,0,Wunderground v.1.15,2013-01-25 00:00:00,
2013-01-24 19:05:00,18.7,3.1,30.56,NW,315,4.0,5.0,50,0.00,,,0.00,0,Wunderground v.1.15,2013-01-25 00:05:00,
2013-01-24 19:10:00,18.5,2.9,30.56,WNW,290,4.0,6.0,50,0.00,,,0.00,0,Wunderground v.1.15,2013-01-25 00:10:00,
2013-01-24 19:16:00,18.5,2.9,30.56,WNW,284,4.0,6.0,50,0.00,,,0.00,0,Wunderground v.1.15,2013-01-25 00:16:00,
2013-01-24 19:21:00,18.4,2.8,30.57,NW,315,4.0,6.0,50,0.00,,,0.00,0,Wunderground v.1.15,2013-01-25 00:21:00,
2013-01-24 19:28:00,18.5,2.5,30.57,NNW,327,5.0,7.0,49,0.00,,,0.00,0,Wunderground v.1.15,2013-01-25 00:28:00,
2013-01-24 19:33:00,18.4,2.4,30.57,NW,313,5.0,6.0,49,0.00,,,0.00,0,Wunderground v.1.15,2013-01-25 00:33:00,
2013-01-24 19:39:00,18.2,2.2,30.57,WNW,300,5.0,7.0,49,0.00,,,0.00,0,Wunderground v.1.15,2013-01-25 00:39:00,
2013-01-24 19:45:00,18.1,2.1,30.57,NW,309,5.0,5.0,49,0.00,,,0.00,0,Wunderground v.1.15,2013-01-25 00:45:00,
2013-01-24 19:51:00,18.0,2.5,30.57,WNW,298,5.0,5.0,50,0.00,,,0.00,0,Wunderground v.1.15,2013-01-25 00:51:00,
2013-01-24 19:56:00,17.9,2.4,30.57,West,273,5.0,9.0,50,0.00,,,0.00,0,Wunderground v.1.15,2013-01-25 00:56:00,
2013-01-24 20:02:00,17.7,2.2,30.57,NW,308,5.0,6.0,50,0.00,,,0.00,0,Wunderground v.1.15,2013-01-25 01:02:00,
2013-01-24 20:08:00,17.6,2.1,30.57,NNW,329,5.0,6.0,50,0.00,,,0.00,0,Wunderground v.1.15,2013-01-25 01:08:00,
2013-01-24 20:14:00,17.5,2.4,30.57,NNW,329,6.0,8.0,51,0.00,,,0.00,0,Wunderground v.1.15,2013-01-25 01:14:00,
2013-01-24 20:19:00,17.3,1.8,30.57,NNW,347,6.0,8.0,50,0.00,,,0.00,0,Wunderground v.1.15,2013-01-25 01:19:00,
2013-01-24 20:25:00,17.2,1.7,30.57,WNW,289,5.0,6.0,50,0.00,,,0.00,0,Wunderground v.1.15,2013-01-25 01:25:00,
2013-01-24 20:30:00,17.1,2.1,30.56,WNW,288,5.0,8.0,51,0.00,,,0.00,0,Wunderground v.1.15,2013-01-25 01:30:00,
2013-01-24 20:35:00,17.1,1.6,30.57,WNW,286,6.0,9.0,50,0.00,,,0.00,0,Wunderground v.1.15,2013-01-25 01:35:00,
2013-01-24 20:41:00,17.0,2.0,30.56,NW,316,5.0,5.0,51,0.00,,,0.00,0,Wunderground v.1.15,2013-01-25 01:41:00,
2013-01-24 20:48:00,16.8,1.8,30.57,West,269,5.0,7.0,51,0.00,,,0.00,0,Wunderground v.1.15,2013-01-25 01:48:00,
2013-01-24 20:54:00,16.8,1.8,30.57,WNW,298,4.0,5.0,51,0.00,,,0.00,0,Wunderground v.1.15,2013-01-25 01:54:00,
2013-01-24 21:00:00,16.6,1.6,30.57,NNW,327,3.0,4.0,51,0.00,,,0.00,0,Wunderground v.1.15,2013-01-25 02:00:00,
2013-01-24 21:05:00,16.5,1.9,30.57,NW,311,4.0,5.0,52,0.00,,,0.00,0,Wunderground v.1.15,2013-01-25 02:05:00,
2013-01-24 21:10:00,16.4,1.8,30.57,NW,309,4.0,4.0,52,0.00,,,0.00,0,Wunderground v.1.15,2013-01-25 02:10:00,
2013-01-24 21:16:00,16.3,2.1,30.57,West,271,4.0,8.0,53,0.00,,,0.00,0,Wunderground v.1.15,2013-01-25 02:16:00,
2013-01-24 21:21:00,16.2,2.0,30.57,NW,317,5.0,7.0,53,0.00,,,0.00,0,Wunderground v.1.15,2013-01-25 02:21:00,
2013-01-24 21:26:00,16.1,1.9,30.57,NW,323,6.0,7.0,53,0.00,,,0.00,0,Wunderground v.1.15,2013-01-25 02:26:00,
2013-01-24 21:32:00,16.0,1.9,30.58,West,262,6.0,7.0,53,0.00,,,0.00,0,Wunderground v.1.15,2013-01-25 02:32:00,
2013-01-24 21:37:00,15.9,1.8,30.57,WNW,302,7.0,8.0,53,0.00,,,0.00,0,Wunderground v.1.15,2013-01-25 02:37:00,
2013-01-24 21:43:00,15.8,1.7,30.57,NNW,340,7.0,9.0,53,0.00,,,0.00,0,Wunderground v.1.15,2013-01-25 02:43:00,
2013-01-24 21:49:00,15.6,1.5,30.58,NW,315,7.0,9.0,53,0.00,,,0.00,0,Wunderground v.1.15,2013-01-25 02:49:00,
2013-01-24 21:55:00,15.4,1.3,30.59,WNW,286,6.0,8.0,53,0.00,,,0.00,0,Wunderground v.1.15,2013-01-25 02:55:00,
2013-01-24 22:00:00,15.4,1.7,30.59,NNW,336,6.0,6.0,54,0.00,,,0.00,0,Wunderground v.1.15,2013-01-25 03:00:00,
2013-01-24 22:06:00,15.3,1.6,30.59,WNW,288,5.0,8.0,54,0.00,,,0.00,0,Wunderground v.1.15,2013-01-25 03:06:00,
2013-01-24 22:11:00,15.3,1.6,30.59,NW,317,3.0,4.0,54,0.00,,,0.00,0,Wunderground v.1.15,2013-01-25 03:11:00,
2013-01-24 22:18:00,15.3,2.0,30.59,NW,321,2.0,4.0,55,0.00,,,0.00,0,Wunderground v.1.15,2013-01-25 03:18:00,
2013-01-24 22:22:00,15.1,2.2,30.59,NW,319,3.0,5.0,56,0.00,,,0.00,0,Wunderground v.1.15,2013-01-25 03:22:00,
2013-01-24 22:28:00,15.0,2.1,30.59,NW,319,4.0,5.0,56,0.00,,,0.00,0,Wunderground v.1.15,2013-01-25 03:28:00,
2013-01-24 22:34:00,14.8,1.5,30.59,NW,304,5.0,6.0,55,0.00,,,0.00,0,Wunderground v.1.15,2013-01-25 03:34:00,
2013-01-24 22:39:00,14.8,1.5,30.59,WNW,296,5.0,8.0,55,0.00,,,0.00,0,Wunderground v.1.15,2013-01-25 03:39:00,
2013-01-24 22:45:00,14.7,1.4,30.59,NW,323,5.0,9.0,55,0.00,,,0.00,0,Wunderground v.1.15,2013-01-25 03:45:00,
2013-01-24 22:50:00,14.6,1.3,30.60,WNW,301,6.0,6.0,55,0.00,,,0.00,0,Wunderground v.1.15,2013-01-25 03:50:00,
2013-01-24 22:56:00,14.5,1.2,30.59,NW,322,5.0,6.0,55,0.00,,,0.00,0,Wunderground v.1.15,2013-01-25 03:56:00,
2013-01-24 23:02:00,14.4,1.2,30.59,West,281,3.0,5.0,55,0.00,,,0.00,0,Wunderground v.1.15,2013-01-25 04:02:00,
2013-01-24 23:08:00,14.3,1.4,30.59,WNW,302,4.0,7.0,56,0.00,,,0.00,0,Wunderground v.1.15,2013-01-25 04:08:00,
2013-01-24 23:14:00,14.2,1.4,30.59,NW,321,3.0,6.0,56,0.00,,,0.00,0,Wunderground v.1.15,2013-01-25 04:14:00,
2013-01-24 23:20:00,14.1,1.6,30.59,NW,312,4.0,4.0,57,0.00,,,0.00,0,Wunderground v.1.15,2013-01-25 04:20:00,
2013-01-24 23:26:00,14.0,1.5,30.59,WNW,290,4.0,6.0,57,0.00,,,0.00,0,Wunderground v.1.15,2013-01-25 04:26:00,
2013-01-24 23:32:00,13.9,1.5,30.59,WNW,302,3.0,3.0,57,0.00,,,0.00,0,Wunderground v.1.15,2013-01-25 04:32:00,
2013-01-24 23:37:00,13.9,1.8,30.59,NNW,340,3.0,5.0,58,0.00,,,0.00,0,Wunderground v.1.15,2013-01-25 04:37:00,
2013-01-24 23:43:00,13.8,1.7,30.59,WNW,303,4.0,6.0,58,0.00,,,0.00,0,Wunderground v.1.15,2013-01-25 04:43:00,
2013-01-24 23:48:00,13.7,1.6,30.59,WNW,282,4.0,6.0,58,0.00,,,0.00,0,Wunderground v.1.15,2013-01-25 04:48:00,
2013-01-24 23:54:00,13.6,1.9,30.58,NNW,333,4.0,6.0,59,0.00,,,0.00,0,Wunderground v.1.15,2013-01-25 04:54:00,
2013-01-24 23:59:00,13.5,2.2,30.58,WNW,294,4.0,6.0,60,0.00,,,0.00,0,Wunderground v.1.15,2013-01-25 04:59:00,